TimeCST,TemperatureF,Dew PointF,Humidity,Sea Level PressureIn,VisibilityMPH,Wind Direction,Wind SpeedMPH,Gust SpeedMPH,PrecipitationIn,Events,Conditions,WindDirDegrees,DateUTC
12:00 AM,75,74,95,29.90,12,Calm,Calm,,,,Partly Cloudy,,2012-12-28 06:00:00
3:00 AM,73,71,92,29.86,12,Calm,Calm,,,,Mostly Cloudy,,2012-12-28 09:00:00
5:00 AM,69.8,69.8,100,29.86,6.2,Calm,Calm,-,N/A,,Partly Cloudy,0,2012-12-28 11:00:00
6:00 AM,72,71,96,29.88,9,Calm,Calm,,,,Mist,,2012-12-28 12:00:00
6:00 AM,71.6,71.6,100,29.86,6.2,Calm,Calm,-,N/A,,Partly Cloudy,0,2012-12-28 12:00:00
7:00 AM,73.4,71.6,94,29.89,6.2,Calm,Calm,-,N/A,,Scattered Clouds,0,2012-12-28 13:00:00
8:00 AM,75.2,75.2,100,29.92,6.2,Calm,Calm,-,N/A,,Mostly Cloudy,0,2012-12-28 14:00:00
9:00 AM,80,76,85,29.93,12,SSE,4.6,,,,Mostly Cloudy,150,2012-12-28 15:00:00
9:00 AM,78.8,77.0,94,29.93,6.2,SSE,4.6,-,N/A,,Mostly Cloudy,150,2012-12-28 15:00:00
10:00 AM,82.4,75.2,79,29.93,6.2,SSE,9.2,-,N/A,,Mostly Cloudy,150,2012-12-28 16:00:00
11:00 AM,84.2,77.0,79,29.92,6.2,SE,8.1,-,N/A,,Mostly Cloudy,140,2012-12-28 17:00:00
12:00 PM,84,76,71,29.90,12,SSE,6.9,,,,Mostly Cloudy,150,2012-12-28 18:00:00
12:00 PM,84.2,77.0,79,29.90,6.2,SSE,6.9,-,N/A,,Mostly Cloudy,150,2012-12-28 18:00:00
1:00 PM,86.0,77.0,74,29.87,6.2,SE,6.9,-,N/A,,Mostly Cloudy,140,2012-12-28 19:00:00
2:00 PM,84.2,77.0,79,29.85,6.2,SSE,9.2,-,N/A,,Mostly Cloudy,150,2012-12-28 20:00:00
3:00 PM,84,77,73,29.84,12,ESE,9.2,,,,Mostly Cloudy,110,2012-12-28 21:00:00
3:00 PM,84.2,77.0,79,29.84,6.2,ESE,9.2,-,N/A,,Mostly Cloudy,110,2012-12-28 21:00:00
4:00 PM,84.2,75.2,74,29.83,6.2,ESE,6.9,-,N/A,,Scattered Clouds,120,2012-12-28 22:00:00
5:00 PM,80.6,75.2,84,29.84,6.2,SE,6.9,-,N/A,,Scattered Clouds,130,2012-12-28 23:00:00
6:00 PM,80,76,83,29.86,12,ESE,3.5,,,,Partly Cloudy,120,2012-12-29 00:00:00
6:00 PM,78.8,75.2,89,29.85,6.2,ESE,3.5,-,N/A,,Scattered Clouds,120,2012-12-29 00:00:00
9:00 PM,79,76,89,29.90,12,ESE,3.5,,,,Mostly Cloudy,120,2012-12-29 03:00:00